Location: Street
(51.1247°N, 2.7429°W)
Time: 01:25:58
(UTC+00:00)

deb Explorer IX - Pass Details

Date: 09 December 2020
Orbit: 536 x 1104 km, 38.8° (Epoch: 20 January)

Event Time Altitude Azimuth Distance (km) Brightness Sun altitude
Rises 16:04:43 0° 259° (W) 3,856 ? -0.9°
Reaches altitude 10° 16:08:07 10° 247° (WSW) 2,840 ? -1.4°
Maximum altitude 16:13:17 23° 198° (SSW) 1,934 ? -2.0°
Drops below altitude 10° 16:18:01 10° 148° (SSE) 2,564 ? -2.6°
Sets 16:20:55 0° 134° (SE) 3,398 ? -3.0°
